OBJECT D, 51827

Orbit data source: Space-Track

You're viewing an Uncataloged Satellite

Recently launched and/or uncataloged satellites may have evolving metadata. Metadata may include but not limited to: Owner, Maufacturer, Bus, Motor, and Mission.

OBJECT D, 51827 is a Chinese satellite in SSO that was launched on Sun, 27 Feb 2022 UTC via a CHANG ZHENG 8 launch vehicle from the Wenchang Satellite Launch Center (WSC). Unknown objects in Earth's orbit typically refer to objects detected orbiting the Earth but have not yet been identified or cataloged. These objects could be anything from previously untracked satellites, spent rocket stages, debris from satellite collisions, or even natural meteoroids temporarily captured by Earth's gravity.

Not visible in the next 10 days
Identifier
51827, 2022-019D
Orbit
SSO
Country
Flag of CNCN / PRC
Related business
None
Manufacturer
Unknown
Mission
Non-operational Civil Imaging
Bus & Motor
Unknown
Mass
Unknown
Launch date (UTC)
2022-02-27 (4 years ago)
Launch vehicle
CHANG ZHENG 8
Launch site
Wenchang Satellite Launch Center (WSC)
Object type
Unknown
Shape & HBR
Box + 2 Pan, 1.0 m
Radar Cross Section
1.775 m², Medium (>0.1 m² and < 1m²)

Expand to show TLE details & history
Last TLE update: 19 hours ago

TLE from 19 hours ago
0 OBJECT D
1 51827U 22019D   25348.97119200  .00026578  00000-0  45832-3 0  9991
2 51827  97.3813  69.4294 0007862  89.3498 270.8655 15.50982667210986
Epoch: 2025-12-14T23:18Z
TLE epoch observation values (Epoch: 2025-12-14T23:18:30.988Z)
Latitude
-0.00002°
Longitude
-4.07617°
Altitude
416.912 km
Speed
7.661 km/s
True Right ascension
04h 37m 43s
True Declination
0° 00' 00"
Sunlit
Object was in full shadow at epoch
Visualization orbit readout
Latitude
Unknown
Longitude
Unknown
Altitude
Unknown
Speed
Unknown
Apparent Right ascension
Unknown
Apparent Declination
Unknown
Sunlit
N/A
Visualization observer readout
Local Sidereal Time
17:10:07
Azimuth
Unknown
Elevation
Unknown
Doppler factor
Unknown
Orbital elements
Apogee altitude
416.117 km
Perigee altitude
405.442 km
Semi-major axis
6,788.916 km
Eccentricity
0.00079
Inclination
97.3813°
RAAN
69.4294°
Arg. of periapsis
89.3498°
True anomaly
270.77542°
Mean anomaly
270.8655°
Eccentric anomaly
270.82046°
Mean motion
3.8801 °/min
Orbital period
92.78 mins
BSTAR
0.00045832
Loading maneuver chart data...
Computing Atmospheric mass density...
Loading historical data...
Loading historical data...
Loading historical data...
Loading historical data...
Loading historical data...
Loading historical data...
Loading historical data...

Documentation

Showing up to 5 results
|